Погода в Сунтаре

Погода в Сунтаре : погода сейчас, прогноз погоды и архив. Всё, что Вы хотите узнать о погоде в Сунтаре!

Хотите узнать прогноз погоды в Сунтаре? Тогда Вам сюда: Погода в Сунтаре

Поиск расширенной информации на нашем сайте:

Другие новости

Новости СМИ2

Главная страница сайта

Новости сайта

03.07.2017

Напоминаем, что на нашем специализированном сайте Метеоцентр.Азия вы можете получить высокодетализированные автоматические прогнозы погоды по пунктам России, СНГ и мира в авиационном формате (включающие направление и скорость ветра, видимость, явления погоды, количество и форму облачности, нижнюю и верхнюю границу облачности).

Рекомендуем: офисные блоки на выгодных условиях снять офис в бц K2 в Румянцево описание помещений на сайте

Погода в Сунтаре - сегодня

Время (UTC), дата Ветер
(°,м/с) 
Видим.   Явления Облачность Т
(°С)
Тd
(°С)
f(%) Тe
(°С)
Pmin
(гПа)
dP
(гПа)
Po
(мм)
O2
(г/м3)
Тmin Tmax R s Состояние
почвы
09 17.06.18 340 (С) 20000 м    8/6 1000 м верхняя 
[Cu hum|Ci fib]
+21.7 +3.4 30 +22  1003.1  -0.3  741  276           
15 17.06.18 тихо ()   20000 м    10/0 средняя, верхняя 
[Ac trans|Ci fib]
+14.3 +10.5 78 +16  1005.4  1.1  742  282           
18 17.06.18 тихо ()   20000 м    10/0 средняя, верхняя 
[Ac trans|Ci fib]
+8.2 +6.5 89 +8  1005.6  -0.1  742  289           
21 17.06.18 тихо ()   20000 м    6/0 верхняя 
[Ci fib]
+9.3 +6 80 +9  1005  -0.5  741  288           
03 18.06.18 340 (С) 20000 м    4/4 1000 м 
[Cu hum]
+21 +5.3 36 +21  1003.8  -0.1  741  276           
06 18.06.18 330 (СЗ) 20000 м    8/8 1050 м 
[Cu med, cong]
+22.9 +4.2 30 +23  1003.2  -0.5  741  275           
09 18.06.18 360 (С) 20000 м    8/5 1000 м верхняя 
[Cu hum|Cs]
+23.6 +5.1 30 +24  1003  -0.1  741  274           
15 18.06.18 190 (Ю) 20000 м    10/0 средняя 
[Ac trans]
+12.3 +8.5 78 +14  1005.6  0.1  742  285           
18 18.06.18 140 (ЮВ) 20000 м    10/0 средняя 
[Ac trans]
+9.7 +7.6 87 +11  1005.3  -0.4  742  287           
21 18.06.18 тихо ()   20000 м    6/0 средняя 
[Ac trans]
+10.4 +7 79 +10  1005.2  -0.1  742  287           
03 19.06.18 тихо ()   20000 м    10/0 средняя, верхняя 
[Ac trans|Ci fib]
+21.9 +10.4 48 +24  1004.2  -0.3  741  275           
06 19.06.18 тихо ()   20000 м    10/3 1000 м кучево-дожд., средняя, верхняя 
[Cb cap|Ac trans|Ci fib]
+22.5 +11 48 +25  1003.5  -0.6  741  274           
09 19.06.18 350 (С) 20000 м  в посл. час ливневой дождь{гроза}  10/5 1000 м кучево-дожд., верхняя 
[Cb cap|Ci fib]
+16.3 +14.2 87 +25  1004.4  0.5  741  279           
15 19.06.18 140 (ЮВ) 20000 м    10/5 1000 м верхняя 
[Sc|Ci fib]
+14.5 +12.5 88 +21  1002.6  -0.9  740  281           
18 19.06.18 тихо ()   20000 м  местами туман поземный  6/0 верхняя 
[Ci fib]
+11.8 +11.2 96 +15  1002.8  740  284           
21 19.06.18 тихо ()   20000 м  местами туман поземный  6/3 1000 м верхняя 
[Cu med, cong|Ci fib]
+11 +10.6 97 +13  1002.6  -0.2  740  285           
03 20.06.18 320 (СЗ) 20000 м    6/4 600 м кучево-дожд., верхняя 
[Cb cap|Ci fib]
+21.6 +14.3 63 +29  1000.6  -0.7  739  273           
06 20.06.18 020 (С) 20000 м    8/5 600 м кучево-дожд., верхняя 
[Cb cap|Ci fib]
+24 +12.8 50 +29  999.2  -1.3  738  271           
09 20.06.18 340 (С) 20000 м    8/4 600 м кучево-дожд., верхняя 
[Cb cap|Ci fib]
+23.2 +9.9 43 +25  998.8  -0.4  737  272           
15 20.06.18 040 (СВ) 20000 м    6/0 средняя 
[Ac trans]
+16 +7.6 57 +17  1000.9  739  280           
18 20.06.18 330 (СЗ) 20000 м    ясно 
+10.6 +6.1 74 +12  1001.8  0.6  739  286           
21 20.06.18 320 (СЗ) 20000 м    ясно 
+10.3 +6.2 76 +10  1002  0.2  739  286           
03 21.06.18 010 (С) 20000 м    8/8 1080 м 
[Cu med, cong]
+17.6 +9.6 59 +19  1001.7  0.5  739  278           
06 21.06.18 330 (СЗ) 20000 м    8/8 1080 м кучево-дожд. 
[Cb cap]
+21.4 +9 45 +22  1001.5  0.1  739  275           
09 21.06.18 340 (С) 20000 м  {ливн. осадки}  6/4 1000 м средняя 
[Cu hum|Ac trans]
+21 +10.1 50 +23  1001.9  0.3  740  275           
Время (UTC), дата Ветер
(°,м/с) 
Видим.   Явления Облачность Т
(°С)
Тd
(°С)
f(%) Тe
(°С)
Pmin
(гПа)
dP
(гПа)
Po
(мм)
O2
(г/м3)
Тmin Tmax R s Состояние
почвы

Для получения пояснительной информации подведите курсор к названию столбца.

ПОГОДА в Сунтаре - архив

Всё, что Вы хотите узнать о погоде в Сунтаре - удобно и подробно!

Выберите нужную дату (начиная с 1 января 2015* года) и нажмите кнопку "Найти".
Будут отображены архивные сводки погоды по пункту Сунтар, начиная с указанной даты.


Отображать данные в формате CSV (для использования в таблицах Excel)


Внимание! Наш архив погоды предназначен исключительно для личного некоммерческого использования в познавательных целях. Если Вам необходимы официальные справки о состоянии погоды (для производственных, юридических, коммерческих и т.п. целей), обращайтесь в органы Росгидромета.

*Примечание: данная дата относится к архиву по метеостанциям СССР (Россия, СНГ, Балтия).
Архив по метеостанциям Зарубежной Европы и Азии (кроме Китая) хранится 10 дней, по другим регионам земного шара (Китай, Африка, Америка, Австралия, Океания) - 1 день.

Сунтар - район местоположения метеостанции


Название, широта, долгота, высота метеостанции:
Сунтар 62.2°ш. 117.6°д. 133 м над ур. моря [Российская Федерация]

Дополнительная информация

В oтличие oт бoльшинства пoгoдных сайтoв мы публикуем пoдрoбную метеoинфoрмацию в детальнoм прoфессиoнальнoм фoрмате.

Характеристики температуры и влажнoсти вoздуха измеряются на высoте 2 м в тени вдали oт зданий и деревьев.
Скoрoсть ветра измеряется на высoте 10 м (на урoвне рoста челoвека скoрoсть ветра ниже в 1.5-2 раза). Если метеoстанция нахoдится в гoрoде или в лесу, тo скoрoсть ветра занижена на 2-4 м/с пo сравнению с oткрытым местoм. Скoрoсть ветра над акватoриями крупных рек и oзёр, а также на вершинах хoлмoв на 2-5 м/с выше, чем в oбычных услoвиях.
Атмoсфернoе давление в разных тoчках местнoсти мoжет значительнo oтличаться oт давления на метеoстанции, в зависимoсти oт услoвий рельефа (при пoдъёме на 10 м давление пoнижается примернo на 1 мм рт.ст.).